Погода в Бамбари

Центральноафриканская республика     5°45′52″N   20°40′47″E
темп.,
°C
ветер,
м/с
пор.,
м/с
влажн.,
%
обл.,
%
осадки,
мм/ч
давл.,
гПа
погр.,
м
27 февраля, сб
сб2701:00+24ссз122770 0.0 100727
04:00+23св123162 0.0 100924
07:00+24юв113231 0.0 101188
10:00+35вюв35140 0.0 10101312
13:00+40вюв34110 0.0 10053701
16:00+39юв241044 0.0 10034192
19:00+28юв111934 0.0 100524
22:00+25ю11240 0.0 100724
28 февраля, вс
вс2801:00+23с11290 0.0 100625
04:00+22ссз12290 0.0 100723
07:00+24всв23270 0.0 1010103
10:00+37в35130 0.0 10081404
13:00+41юв34110 0.0 10043909
16:00+41ююв14100 0.0 10024414
19:00+28ссв11205 0.0 100424
22:00+26св11220 0.0 100624
1 марта, пн
пн101:00+23вюв11240 0.0 100623
04:00+21в11280 0.0 100623
07:00+24в23260 0.0 1008143
10:00+35всв58110 0.0 10081114
13:00+41вюв3580 0.0 10033758
16:00+41в3480 0.0 10014015
19:00+29в11150 0.0 100324
22:00+25св11200 0.0 100624
2 марта, вт
вт201:00+23в12220 0.0 100623
04:00+20вюв11270 0.0 100723
07:00+23всв23240 0.0 1009105
10:00+36всв48100 0.0 1008931
13:00+43в33719 0.0 10034256
16:00+42св14748 0.0 10014711
19:00+30с121431 0.0 100324
22:00+27в111689 0.0 100524
3 марта, ср
ср301:00+24св122086 0.0 100623
04:00+22св1222100 0.0 100723
07:00+24в122295 0.0 100991
10:00+36всв351097 0.0 10091017
13:00+42вюв34799 0.0 10043615
16:00+41в23896 0.0 10014240
19:00+29всв011570 0.0 100324
22:00+25ююв111933 0.0 100624